Date_and_time,latitude,longitude,wind_speed,RelWindDirFrom,WindDirFrom,air_pressure,air_temperature,relative_humidity,Temp,platform_speed_wrt_ground,air_pressure_at_mean_sea_level,platform_orientation
2019-03-18 00:00,50.63044,-96.9807666666667,2.8,4.0,114,997.94,-2.7,100,0.89,0.0,1026.27,0.0
2019-03-18 00:10,50.6304616666667,-96.980835,2.6,3.3,117,997.91,-2.3,100,0.88,0.0,1026.20,0.0
2019-03-18 00:20,50.6304366666667,-96.9807633333333,2.2,3.4,160,997.88,-3.4,100,0.89,0.0,1026.15,0.0
2019-03-18 00:30,50.6304416666667,-96.98077,3.0,3.6,176,997.88,-3.8,101,0.90,0.0,1026.18,0.0
2019-03-18 00:40,50.6304416666667,-96.9807716666667,2.3,2.9,182,997.88,-3.6,101,0.89,0.0,1026.23,0.0
2019-03-18 00:50,50.6304316666667,-96.9807633333333,1.5,3.9,127,997.89,-3.6,101,0.89,0.0,1026.26,0.0
2019-03-18 01:00,50.6304383333333,-96.9807666666667,2.4,3.4,163,997.93,-4.0,101,0.89,0.0,1026.38,0.0
2019-03-18 01:10,50.63044,-96.9807633333333,2.2,3.1,134,998.01,-4.2,101,0.89,0.0,1026.50,0.0
2019-03-18 01:20,50.6304333333333,-96.98076,2.3,3.6,155,998.02,-5.2,101,0.89,0.0,1026.60,0.0
2019-03-18 01:30,50.6304366666667,-96.9807666666667,3.0,4.3,159,997.98,-5.1,101,0.89,0.0,1026.55,0.0
2019-03-18 01:40,50.6304366666667,-96.9807666666667,2.8,3.5,168,997.99,-5.2,101,0.88,0.0,1026.55,0.0
2019-03-18 01:50,50.6304366666667,-96.9807666666667,2.9,3.5,176,998.01,-5.3,101,0.89,0.0,1026.58,0.0
2019-03-18 02:00,50.630435,-96.9807666666667,3.8,5.1,199,998.04,-4.9,101,0.88,0.0,1026.57,360.0
2019-03-18 02:10,50.63044,-96.9807566666667,2.4,3.4,219,998.02,-4.5,101,0.88,0.0,1026.59,360.0
2019-03-18 02:20,50.6304416666667,-96.9807733333333,1.8,2.6,219,998.01,-4.3,101,0.88,0.0,1026.59,360.0
2019-03-18 02:30,50.630445,-96.98076,1.5,2.2,210,997.96,-4.4,101,0.88,0.0,1026.53,360.0
2019-03-18 02:40,50.63044,-96.9807616666667,2.8,3.7,216,997.96,-4.9,101,0.87,0.0,1026.56,360.0
2019-03-18 02:50,50.63044,-96.9807633333333,3.6,4.5,243,997.98,-4.3,101,0.87,0.0,1026.57,360.0
2019-03-18 03:00,50.6304416666667,-96.980765,3.6,5.2,254,998.03,-3.8,101,0.87,0.0,1026.61,90.0
2019-03-18 03:10,50.6304433333333,-96.9807666666667,4.1,5.0,260,998.09,-3.5,101,0.87,0.0,1026.70,90.0
2019-03-18 03:20,50.63045,-96.98077,4.5,5.8,257,998.13,-3.0,101,0.87,0.0,1026.72,90.0
2019-03-18 03:30,50.6304516666667,-96.980775,4.5,5.6,257,998.16,-2.7,101,0.87,0.0,1026.73,90.0
2019-03-18 03:40,50.6304516666667,-96.9807733333333,4.8,6.5,265,998.22,-2.2,101,0.87,0.0,1026.77,90.0
2019-03-18 03:50,50.6304516666667,-96.980775,5.3,6.6,271,998.24,-2.2,100,0.87,0.0,1026.78,90.0
2019-03-18 04:00,50.6304533333333,-96.9807733333333,5.0,6.0,271,998.21,-2.1,100,0.87,0.0,1026.72,318.7
2019-03-18 04:10,50.630435,-96.9807816666667,5.4,6.2,274,998.17,-2.0,100,0.87,0.0,1026.65,318.7
2019-03-18 04:20,50.63044,-96.9807816666667,5.0,6.2,272,998.15,-2.0,100,0.87,0.0,1026.63,318.7
2019-03-18 04:30,50.6304416666667,-96.9807633333333,4.4,5.4,268,998.10,-2.0,100,0.86,0.0,1026.62,318.7
2019-03-18 04:40,50.6304433333333,-96.9807616666667,4.6,5.4,267,998.14,-2.2,100,0.87,0.0,1026.64,318.7
2019-03-18 04:50,50.630455,-96.9807916666667,4.6,5.1,267,998.10,-2.3,100,0.87,0.0,1026.57,318.7
2019-03-18 05:00,50.6304466666667,-96.980775,3.3,4.8,274,998.09,-2.5,100,0.87,0.0,1026.56,345.5
2019-03-18 05:10,50.6304366666667,-96.9807733333333,1.9,3.7,261,997.98,-3.0,100,0.87,0.0,1026.44,345.5
2019-03-18 05:20,50.6304416666667,-96.98077,2.7,3.7,215,997.98,-4.6,100,0.87,0.0,1026.52,345.5
2019-03-18 05:30,50.6304433333333,-96.9807733333333,3.3,4.3,239,998.00,-5.2,100,0.87,0.0,1026.54,345.5
2019-03-18 05:40,50.6304433333333,-96.9807733333333,4.1,4.9,239,997.97,-3.9,101,0.87,0.0,1026.44,345.5
2019-03-18 05:50,50.6304416666667,-96.980775,5.2,6.5,247,998.02,-3.5,100,0.87,0.0,1026.47,345.5
2019-03-18 06:00,50.6304333333333,-96.9807816666667,5.3,6.7,240,998.00,-3.5,100,0.86,0.0,1026.44,235.2
2019-03-18 06:10,50.6304383333333,-96.9807683333333,4.7,5.3,232,997.88,-3.7,100,0.87,0.0,1026.33,235.2
2019-03-18 06:20,50.6304333333333,-96.9807666666667,5.3,5.9,236,997.84,-3.7,100,0.87,0.0,1026.28,235.2
2019-03-18 06:30,50.63044,-96.9807633333333,5.3,5.9,236,997.76,-3.5,100,0.86,0.0,1026.21,235.2
2019-03-18 06:40,50.6304416666667,-96.9807633333333,5.7,7.2,239,997.74,-3.5,100,0.87,0.0,1026.19,235.2
2019-03-18 06:50,50.6304416666667,-96.9807666666667,5.5,6.7,234,997.76,-3.6,100,0.87,0.0,1026.23,235.2
2019-03-18 07:00,50.630445,-96.9807716666667,5.4,6.5,233,997.73,-3.9,100,0.87,0.0,1026.23,360.0
2019-03-18 07:10,50.6304466666667,-96.9807716666667,5.8,7.9,240,997.71,-4.0,100,0.87,0.0,1026.32,360.0
2019-03-18 07:20,50.6304483333333,-96.9807716666667,6.0,7.7,240,997.76,-4.3,100,0.86,0.0,1026.41,360.0
2019-03-18 07:30,50.6304483333333,-96.9807716666667,5.8,7.1,241,997.69,-4.7,100,0.86,0.0,1026.28,360.0
2019-03-18 07:40,50.6304533333333,-96.980775,5.4,6.5,236,997.54,-4.8,100,0.86,0.0,1026.12,360.0
2019-03-18 07:50,50.630455,-96.9807733333333,5.5,6.4,234,997.42,-4.8,100,0.86,0.0,1025.99,360.0
2019-03-18 08:00,50.6304533333333,-96.9807733333333,5.9,7.1,233,997.36,-4.7,100,0.86,0.0,1025.93,38.0
2019-03-18 08:10,50.6304533333333,-96.98077,5.4,6.4,233,997.19,-4.7,100,0.86,0.0,1025.76,38.0
2019-03-18 08:20,50.6304533333333,-96.9807683333333,5.2,7.0,228,996.98,-4.9,100,0.86,0.0,1025.55,38.0
2019-03-18 08:30,50.6304516666667,-96.98077,5.8,7.0,227,996.86,-4.9,100,0.86,0.0,1025.42,38.0
2019-03-18 08:40,50.63045,-96.9807683333333,6.2,7.5,222,996.67,-4.9,100,0.86,0.0,1025.24,38.0
2019-03-18 08:50,50.63044,-96.9807533333333,6.5,7.6,222,996.49,-5.1,100,0.86,0.0,1025.07,38.0
2019-03-18 09:00,50.63044,-96.9807633333333,5.4,7.1,218,996.33,-5.2,100,0.86,0.0,1024.91,49.4
2019-03-18 09:10,50.6304383333333,-96.9807633333333,5.2,6.7,215,996.14,-5.0,100,0.85,0.0,1024.73,49.4
2019-03-18 09:20,50.63044,-96.9807716666667,4.7,6.1,209,995.93,-5.0,100,0.85,0.0,1024.54,49.4
2019-03-18 09:30,50.6304366666667,-96.9807733333333,4.8,5.9,212,995.90,-5.1,100,0.85,0.0,1024.52,49.4
2019-03-18 09:40,50.630435,-96.9807733333333,5.9,8.8,220,995.92,-4.9,100,0.85,0.0,1024.52,49.4
2019-03-18 09:50,50.6304333333333,-96.9807733333333,6.4,8.1,209,995.66,-4.7,100,0.84,0.0,1024.24,49.4
2019-03-18 10:00,50.630435,-96.9807733333333,6.4,7.9,209,995.43,-4.6,99,0.84,0.0,1024.00,142.0
2019-03-18 10:10,50.6304333333333,-96.9807733333333,5.8,7.0,200,995.23,-4.9,99,0.84,0.0,1023.82,142.0
2019-03-18 10:20,50.6304333333333,-96.9807733333333,6.0,6.6,183,995.07,-6.1,99,0.84,0.0,1023.72,142.0
2019-03-18 10:30,50.6304516666667,-96.9807833333333,6.3,6.9,180,995.02,-7.1,100,0.84,0.0,1023.72,142.0
2019-03-18 10:40,50.6304233333333,-96.9807583333333,5.8,7.3,194,994.97,-6.7,100,0.84,0.0,1023.66,142.0
2019-03-18 10:50,50.6304316666667,-96.98077,6.4,7.3,179,994.75,-6.8,99,0.84,0.0,1023.45,142.0
2019-03-18 11:00,50.63043,-96.9807666666667,6.9,7.8,179,994.64,-7.3,100,0.84,0.0,1023.35,166.7
2019-03-18 11:10,50.6304383333333,-96.98076,7.1,7.6,182,994.51,-7.2,100,0.84,0.0,1023.21,166.7
2019-03-18 11:20,50.6304366666667,-96.9807666666667,7.4,8.0,181,994.32,-7.1,100,0.84,0.0,1023.01,166.7
2019-03-18 11:30,50.6304333333333,-96.9807683333333,6.9,7.7,187,994.20,-6.9,99,0.84,0.0,1022.87,166.7
2019-03-18 11:40,50.6304333333333,-96.9807666666667,7.3,9.3,199,994.15,-6.4,99,0.83,0.0,1022.78,166.7
2019-03-18 11:50,50.6304566666667,-96.9807683333333,8.4,10.2,199,994.08,-5.9,99,0.83,0.0,1022.67,166.7
2019-03-18 12:00,50.63043,-96.98077,7.2,9.6,195,993.93,-5.9,99,0.83,0.0,1022.54,360.0
2019-03-18 12:10,50.6304333333333,-96.98077,6.6,8.0,195,993.83,-6.0,99,0.83,0.0,1022.51,360.0
2019-03-18 12:20,50.630435,-96.9807716666667,6.1,7.4,191,993.69,-6.3,99,0.83,0.0,1022.43,360.0
2019-03-18 12:30,50.6304366666667,-96.98077,7.2,9.6,195,993.59,-6.1,99,0.83,0.0,1022.29,360.0
2019-03-18 12:40,50.630435,-96.9807683333333,8.0,10.4,190,993.40,-6.0,99,0.83,0.0,1022.09,360.0
2019-03-18 12:50,50.6304366666667,-96.9807666666667,9.1,10.8,185,993.08,-6.0,99,0.83,0.0,1021.80,360.0
2019-03-18 13:00,50.6304366666667,-96.980765,8.8,10.7,186,992.92,-6.1,99,0.83,0.0,1021.64,90.0
2019-03-18 13:10,50.6304366666667,-96.980765,8.5,11.5,191,992.79,-6.0,99,0.84,0.0,1021.49,90.0
2019-03-18 13:20,50.6304316666667,-96.98076,7.3,9.4,191,992.57,-5.8,99,0.84,0.0,1021.25,90.0
2019-03-18 13:30,50.6304383333333,-96.9807616666667,8.5,10.5,186,992.39,-5.7,99,0.83,0.0,1021.02,90.0
2019-03-18 13:40,50.63044,-96.98076,9.5,11.6,185,992.22,-5.6,99,0.83,0.0,1020.82,90.0
2019-03-18 13:50,50.6304416666667,-96.9807633333333,9.2,12.1,186,992.08,-5.5,99,0.83,0.0,1020.66,90.0
2019-03-18 14:00,50.63044,-96.9807616666667,9.4,11.7,181,991.79,-5.3,99,0.83,0.0,1020.36,360.0
2019-03-18 14:10,50.63044,-96.9807616666667,11.0,14.2,180,991.42,-5.3,98,0.83,0.0,1019.99,360.0
2019-03-18 14:20,50.6304383333333,-96.9807616666667,10.5,14.0,184,991.17,-5.2,98,0.82,0.0,1019.72,360.0
2019-03-18 14:30,50.6304233333333,-96.980765,11.3,14.7,183,990.99,-4.9,96,0.82,0.0,1019.52,360.0
2019-03-18 14:40,50.6304333333333,-96.980775,10.6,13.8,186,990.96,-4.6,94,0.82,0.0,1019.48,360.0
2019-03-18 14:50,50.6304333333333,-96.98077,8.8,12.2,194,991.24,-4.2,92,0.83,0.0,1019.75,360.0
2019-03-18 15:00,50.6304316666667,-96.9807683333333,8.8,13.7,187,991.24,-4.0,90,0.82,0.0,1019.73,360.0
2019-03-18 15:10,50.6304316666667,-96.9807683333333,9.6,12.9,188,991.19,-3.9,89,0.82,0.0,1019.66,360.0
2019-03-18 15:20,50.6304316666667,-96.9807716666667,10.9,15.1,178,991.05,-4.0,90,0.83,0.0,1019.52,360.0
2019-03-18 15:30,50.6304333333333,-96.98077,11.4,14.8,178,990.91,-4.0,91,0.83,0.0,1019.37,360.0
2019-03-18 15:40,50.630435,-96.98077,12.8,16.0,180,990.62,-3.7,90,0.83,0.0,1019.04,360.0
2019-03-18 15:50,50.6304366666667,-96.9807716666667,12.0,16.0,183,990.58,-3.3,88,0.83,0.0,1018.97,360.0
2019-03-18 16:00,50.6304366666667,-96.9807716666667,11.5,16.0,187,990.56,-3.0,87,0.83,0.0,1018.93,270.0
2019-03-18 16:10,50.6304366666667,-96.9807716666667,12.1,15.2,184,990.35,-2.8,86,0.83,0.0,1018.71,270.0
2019-03-18 16:20,50.6304366666667,-96.9807716666667,12.0,15.7,187,990.33,-2.6,85,0.83,0.0,1018.66,270.0
2019-03-18 16:30,50.6304383333333,-96.9807716666667,11.4,14.2,189,990.26,-2.3,82,0.83,0.0,1018.56,270.0
2019-03-18 16:40,50.6304383333333,-96.9807733333333,10.4,12.8,187,990.14,-1.9,80,0.83,0.0,1018.39,270.0
2019-03-18 16:50,50.6304383333333,-96.9807733333333,11.1,14.8,184,989.99,-1.6,79,0.83,0.0,1018.20,270.0
2019-03-18 17:00,50.6304616666667,-96.9807683333333,12.1,15.3,186,989.96,-1.4,77,0.83,0.0,1018.16,360.0
2019-03-18 17:10,50.6304483333333,-96.9807733333333,12.3,15.8,185,989.99,-1.3,77,0.82,0.0,1018.18,360.0
2019-03-18 17:20,50.6304466666667,-96.9807683333333,10.0,13.8,191,990.21,-1.1,77,0.82,0.0,1018.41,360.0
2019-03-18 17:30,50.6304483333333,-96.9807666666667,10.1,14.3,194,990.17,-0.7,76,0.82,0.0,1018.33,360.0
2019-03-18 17:40,50.6304366666667,-96.980765,10.8,14.2,186,990.07,-0.6,77,0.82,0.0,1018.20,360.0
2019-03-18 17:50,50.6304316666667,-96.9807583333333,9.6,13.9,187,990.05,-0.5,78,0.82,0.0,1018.16,360.0
2019-03-18 18:00,50.630435,-96.9807583333333,10.8,13.7,181,989.94,-0.4,79,0.83,0.0,1018.03,48.3
2019-03-18 18:10,50.6304366666667,-96.98079,11.5,14.7,183,989.86,-0.4,79,0.83,0.0,1017.94,48.3
2019-03-18 18:20,50.63044,-96.98077,11.2,14.1,181,989.84,-0.2,79,0.83,0.0,1017.89,48.3
2019-03-18 18:30,50.630445,-96.9807666666667,11.1,15.7,184,989.78,0.1,78,0.83,0.0,1017.79,48.3
2019-03-18 18:40,50.6304466666667,-96.9807666666667,9.8,13.4,185,989.84,0.6,74,0.83,0.0,1017.81,48.3
2019-03-18 18:50,50.6304466666667,-96.9807633333333,10.2,13.3,178,989.76,0.8,74,0.83,0.0,1017.72,48.3
2019-03-18 19:00,50.6304466666667,-96.9807633333333,10.9,12.8,180,989.61,1.2,72,0.83,0.0,1017.53,14.5
2019-03-18 19:10,50.6304483333333,-96.9807633333333,10.9,13.6,178,989.51,1.4,70,0.83,0.0,1017.40,14.5
2019-03-18 19:20,50.6304483333333,-96.980765,10.0,13.0,181,989.49,1.8,69,0.83,0.0,1017.34,14.5
2019-03-18 19:30,50.6304483333333,-96.980765,9.2,12.0,182,989.53,2.0,68,0.83,0.0,1017.37,14.5
2019-03-18 19:40,50.6304483333333,-96.980765,9.2,11.8,179,989.49,2.1,67,0.84,0.0,1017.32,14.5
2019-03-18 19:50,50.6304483333333,-96.980765,8.5,11.1,182,989.42,2.2,68,0.83,0.0,1017.23,14.5
2019-03-18 20:00,50.6304483333333,-96.980765,9.4,11.5,181,989.36,2.3,66,0.83,0.0,1017.17,360.0
2019-03-18 20:10,50.6304483333333,-96.980765,7.0,10.2,163,989.49,2.4,70,0.84,0.0,1017.28,360.0
2019-03-18 20:20,50.6304466666667,-96.980765,7.6,9.9,145,989.51,1.8,78,0.84,0.0,1017.33,360.0
2019-03-18 20:30,50.6304466666667,-96.9807633333333,8.8,10.7,150,989.43,1.8,78,0.85,0.0,1017.22,360.0
2019-03-18 20:40,50.6304433333333,-96.9807633333333,7.8,11.7,159,989.46,1.9,77,0.85,0.0,1017.23,360.0
2019-03-18 20:50,50.6304433333333,-96.98077,6.6,9.4,163,989.47,2.1,75,0.85,0.0,1017.21,360.0
2019-03-18 21:00,50.63044,-96.9807666666667,6.5,8.3,171,989.52,2.6,72,0.86,0.0,1017.22,347.4
2019-03-18 21:10,50.63044,-96.9807666666667,6.9,9.1,166,989.55,2.9,70,0.86,0.0,1017.22,347.4
2019-03-18 21:20,50.63044,-96.9807683333333,6.7,10.0,155,989.57,2.2,79,0.86,0.0,1017.27,347.4
2019-03-18 21:30,50.63044,-96.98077,7.7,9.1,148,989.49,2.2,79,0.86,0.0,1017.18,347.4
2019-03-18 21:40,50.63044,-96.98077,6.2,8.2,133,989.62,2.2,86,0.86,0.0,1017.31,347.4
2019-03-18 21:50,50.6304383333333,-96.98077,6.8,8.7,127,989.70,2.6,83,0.87,0.0,1017.37,347.4
2019-03-18 22:00,50.6304383333333,-96.98077,6.9,8.3,131,989.76,2.1,89,0.87,0.0,1017.44,142.0
2019-03-18 22:10,50.6304383333333,-96.98077,7.1,8.7,145,989.88,1.7,88,0.87,0.0,1017.62,142.0
2019-03-18 22:20,50.6304366666667,-96.9807683333333,7.8,10.0,146,989.88,1.6,88,0.87,0.0,1017.62,142.0
2019-03-18 22:30,50.6304333333333,-96.9807733333333,8.9,10.3,136,989.90,1.4,91,0.87,0.0,1017.65,142.0
2019-03-18 22:40,50.630435,-96.9807733333333,8.8,10.2,149,989.90,1.1,95,0.88,0.0,1017.66,142.0
2019-03-18 22:50,50.6304366666667,-96.98077,8.2,9.7,152,989.96,0.7,99,0.89,0.0,1017.72,142.0
2019-03-18 23:00,50.6304366666667,-96.9807683333333,7.7,8.8,143,990.15,0.9,97,0.90,0.0,1017.88,360.0
2019-03-18 23:10,50.63044,-96.9807716666667,7.5,8.6,144,990.25,0.9,97,0.90,0.0,1018.02,360.0
2019-03-18 23:20,50.63044,-96.9807733333333,6.5,8.0,135,990.35,1.0,98,0.90,0.0,1018.12,360.0
2019-03-18 23:30,50.63044,-96.9807716666667,6.8,7.5,139,990.32,0.5,99,0.90,0.0,1018.12,360.0
